When you browse on this site, cookies collect data to enhance your experience and personalize the content and advertising you see.
Visit our Privacy Policy to learn more. By continuing to use the site, you agree to this use of cookies and data.
  • In Hungary
  • List of Countries
  • For 7 days
  • Water Temperature
  • Satellite Maps
  • Weather Map
  • News
  • Weather Widgets
  • user-avatar
    Login

    Hourly Weather Parcelacja

    Today, 24 May, Friday

    Time Temperature Precipitation Wind Pressure Humidity
    00:00 +12°C° 0.4 mm 4 mps 738 mmHg 95%
    01:00 +12°C° 0.4 mm 4 mps 738 mmHg 95%
    02:00 +12°C° 0.1 mm 4 mps 738 mmHg 95%
    03:00 +11°C° 0.1 mm 4 mps 738 mmHg 95%
    04:00 +11°C° 0.1 mm 4 mps 738 mmHg 96%
    05:00 +12°C° 0 mm 4 mps 738 mmHg 95%
    06:00 +12°C° 0 mm 3 mps 738 mmHg 93%
    07:00 +12°C° 0 mm 3 mps 738 mmHg 92%
    08:00 +12°C° 0 mm 3 mps 738 mmHg 90%
    09:00 +13°C° 0 mm 3 mps 738 mmHg 89%
    10:00 +14°C° 0 mm 2 mps 738 mmHg 87%
    11:00 +15°C° 0 mm 2 mps 738 mmHg 84%
    12:00 +16°C° 0 mm 2 mps 738 mmHg 81%
    13:00 +16°C° 0 mm 2 mps 738 mmHg 79%
    14:00 +17°C° 0 mm 2 mps 738 mmHg 77%
    15:00 +17°C° 0 mm 3 mps 737 mmHg 76%
    16:00 +18°C° 0 mm 3 mps 737 mmHg 75%
    17:00 +17°C° 0 mm 2 mps 737 mmHg 78%
    18:00 +16°C° 0 mm 2 mps 737 mmHg 80%
    19:00 +16°C° 0 mm 1 mps 737 mmHg 83%
    20:00 +15°C° 0 mm 1 mps 737 mmHg 85%
    21:00 +14°C° 0 mm 1 mps 737 mmHg 87%
    22:00 +13°C° 0 mm 1 mps 737 mmHg 89%
    23:00 +12°C° 0 mm 1 mps 737 mmHg 90%

    Tomorrow, 25 May, Saturday

    Time Temperature Precipitation Wind Pressure Humidity
    00:00 +12°C° 0 mm 1 mps 737 mmHg 91%
    01:00 +11°C° 0 mm 1 mps 737 mmHg 91%
    02:00 +10°C° 0 mm 2 mps 737 mmHg 92%
    03:00 +10°C° 0 mm 2 mps 737 mmHg 93%
    04:00 +10°C° 0 mm 2 mps 737 mmHg 94%
    05:00 +12°C° 0 mm 2 mps 737 mmHg 89%
    06:00 +14°C° 0 mm 2 mps 737 mmHg 84%
    07:00 +16°C° 0 mm 2 mps 737 mmHg 79%
    08:00 +17°C° 0 mm 3 mps 737 mmHg 71%
    09:00 +18°C° 0 mm 3 mps 737 mmHg 64%
    10:00 +20°C° 0 mm 3 mps 737 mmHg 56%
    11:00 +21°C° 0 mm 3 mps 737 mmHg 55%
    12:00 +21°C° 0 mm 3 mps 737 mmHg 54%
    13:00 +22°C° 0 mm 3 mps 737 mmHg 53%
    14:00 +22°C° 0.2 mm 3 mps 736 mmHg 57%
    15:00 +21°C° 0.2 mm 4 mps 736 mmHg 61%
    16:00 +21°C° 0.2 mm 4 mps 736 mmHg 66%
    17:00 +20°C° 0.2 mm 3 mps 736 mmHg 72%
    18:00 +18°C° 0.2 mm 3 mps 736 mmHg 78%
    19:00 +17°C° 0.2 mm 2 mps 736 mmHg 84%
    20:00 +16°C° 0 mm 2 mps 736 mmHg 86%
    21:00 +15°C° 0 mm 1 mps 737 mmHg 88%
    22:00 +14°C° 0 mm 1 mps 737 mmHg 90%
    23:00 +13°C° 0 mm 1 mps 737 mmHg 90%

    Day after tomorrow, 26 May, Sunday

    Time Temperature Precipitation Wind Pressure Humidity
    00:00 +13°C° 0 mm 1 mps 737 mmHg 90%
    01:00 +13°C° 0 mm 1 mps 737 mmHg 90%
    02:00 +11°C° 0 mm 0 mps 737 mmHg 90%
    03:00 +11°C° 0 mm 0 mps 737 mmHg 90%
    04:00 +11°C° 0 mm 0 mps 737 mmHg 90%
    05:00 +12°C° 0 mm 0 mps 737 mmHg 87%
    06:00 +15°C° 0 mm 1 mps 737 mmHg 85%
    07:00 +16°C° 0 mm 1 mps 737 mmHg 82%
    08:00 +17°C° 0.2 mm 2 mps 737 mmHg 81%
    09:00 +18°C° 0.2 mm 2 mps 737 mmHg 80%
    10:00 +19°C° 0.2 mm 3 mps 737 mmHg 78%
    11:00 +19°C° 0.2 mm 3 mps 737 mmHg 75%
    12:00 +20°C° 0.2 mm 4 mps 737 mmHg 71%
    13:00 +21°C° 0.2 mm 5 mps 737 mmHg 68%
    14:00 +21°C° 0.1 mm 4 mps 736 mmHg 66%
    15:00 +21°C° 0.1 mm 4 mps 736 mmHg 65%
    16:00 +21°C° 0.1 mm 4 mps 736 mmHg 63%
    17:00 +20°C° 0.1 mm 3 mps 736 mmHg 69%
    18:00 +19°C° 0.1 mm 2 mps 736 mmHg 74%
    19:00 +18°C° 0.1 mm 1 mps 736 mmHg 79%
    20:00 +16°C° 0 mm 1 mps 737 mmHg 82%
    21:00 +15°C° 0 mm 1 mps 737 mmHg 84%
    22:00 +13°C° 0 mm 0 mps 737 mmHg 86%
    23:00 +14°C° 0 mm 1 mps 737 mmHg 87%

    27 May, Monday

    Time Temperature Precipitation Wind Pressure Humidity
    00:00 +13°C° 0 mm 1 mps 737 mmHg 87%
    01:00 +13°C° 0 mm 1 mps 737 mmHg 88%
    02:00 +13°C° 0 mm 1 mps 737 mmHg 90%
    03:00 +13°C° 0 mm 1 mps 737 mmHg 91%
    04:00 +12°C° 0 mm 1 mps 736 mmHg 93%
    05:00 +14°C° 0 mm 2 mps 736 mmHg 89%
    06:00 +16°C° 0 mm 2 mps 737 mmHg 85%
    07:00 +18°C° 0 mm 3 mps 737 mmHg 82%
    08:00 +19°C° 0 mm 3 mps 736 mmHg 76%
    09:00 +21°C° 0 mm 3 mps 736 mmHg 70%
    10:00 +22°C° 0 mm 3 mps 736 mmHg 64%
    11:00 +24°C° 0.1 mm 3 mps 736 mmHg 63%
    12:00 +25°C° 0.1 mm 3 mps 736 mmHg 61%
    13:00 +25°C° 0.1 mm 3 mps 735 mmHg 60%
    14:00 +24°C° 0.8 mm 3 mps 735 mmHg 66%
    15:00 +23°C° 0.8 mm 2 mps 735 mmHg 73%
    16:00 +21°C° 0.8 mm 2 mps 735 mmHg 79%
    17:00 +20°C° 0.1 mm 2 mps 735 mmHg 81%
    18:00 +19°C° 0.1 mm 2 mps 735 mmHg 83%
    19:00 +19°C° 0.1 mm 1 mps 735 mmHg 85%
    20:00 +19°C° 0 mm 1 mps 735 mmHg 86%
    21:00 +18°C° 0 mm 1 mps 735 mmHg 87%
    22:00 +18°C° 0 mm 1 mps 735 mmHg 88%
    23:00 +16°C° 0.1 mm 1 mps 734 mmHg 89%

    28 May, Tuesday

    Time Temperature Precipitation Wind Pressure Humidity
    00:00 +15°C° 0.1 mm 0 mps 734 mmHg 90%
    01:00 +15°C° 0.1 mm 0 mps 734 mmHg 90%
    02:00 +15°C° 1.3 mm 0 mps 734 mmHg 92%
    03:00 +15°C° 1.3 mm 0 mps 734 mmHg 93%
    04:00 +15°C° 1.3 mm 0 mps 733 mmHg 94%
    05:00 +18°C° 0.2 mm 1 mps 733 mmHg 91%
    06:00 +19°C° 0.2 mm 1 mps 733 mmHg 89%
    07:00 +20°C° 0.2 mm 1 mps 733 mmHg 86%
    08:00 +22°C° 0 mm 1 mps 733 mmHg 80%
    09:00 +23°C° 0 mm 2 mps 733 mmHg 74%
    10:00 +24°C° 0 mm 2 mps 733 mmHg 67%
    11:00 +24°C° 0.2 mm 2 mps 732 mmHg 66%
    12:00 +25°C° 0.2 mm 2 mps 732 mmHg 65%
    13:00 +25°C° 0.2 mm 2 mps 732 mmHg 64%
    14:00 +24°C° 1.3 mm 2 mps 731 mmHg 69%
    15:00 +24°C° 1.3 mm 1 mps 731 mmHg 74%
    16:00 +23°C° 1.3 mm 1 mps 731 mmHg 78%
    17:00 +22°C° 0.7 mm 1 mps 731 mmHg 81%
    18:00 +19°C° 0.7 mm 0 mps 731 mmHg 83%
    19:00 +17°C° 0.7 mm 0 mps 731 mmHg 86%
    20:00 +17°C° 0.3 mm 0 mps 731 mmHg 86%
    21:00 +16°C° 0.3 mm 0 mps 731 mmHg 87%
    22:00 +15°C° 0.3 mm 0 mps 731 mmHg 87%
    23:00 +16°C° 0 mm 1 mps 731 mmHg 88%

    29 May, Wednesday

    Time Temperature Precipitation Wind Pressure Humidity
    00:00 +15°C° 0 mm 1 mps 731 mmHg 89%
    01:00 +15°C° 0 mm 1 mps 731 mmHg 90%
    02:00 +15°C° 0 mm 1 mps 731 mmHg 91%
    03:00 +14°C° 0 mm 2 mps 731 mmHg 92%
    04:00 +14°C° 0 mm 2 mps 732 mmHg 93%
    05:00 +15°C° 0 mm 2 mps 732 mmHg 91%
    06:00 +16°C° 0 mm 3 mps 732 mmHg 90%
    07:00 +18°C° 0 mm 3 mps 733 mmHg 88%
    08:00 +19°C° 0.2 mm 3 mps 733 mmHg 84%
    09:00 +20°C° 0.2 mm 3 mps 733 mmHg 80%
    10:00 +21°C° 0.2 mm 3 mps 734 mmHg 76%
    11:00 +21°C° 0.4 mm 4 mps 734 mmHg 74%
    12:00 +22°C° 0.4 mm 4 mps 734 mmHg 73%
    13:00 +22°C° 0.4 mm 4 mps 734 mmHg 71%
    14:00 +22°C° 0.6 mm 4 mps 735 mmHg 72%
    15:00 +22°C° 0.6 mm 3 mps 735 mmHg 73%
    16:00 +22°C° 0.6 mm 3 mps 735 mmHg 74%
    17:00 +20°C° 0.4 mm 3 mps 735 mmHg 79%
    18:00 +19°C° 0.4 mm 2 mps 735 mmHg 83%
    19:00 +18°C° 0.4 mm 2 mps 735 mmHg 88%
    20:00 +17°C° 0.1 mm 2 mps 736 mmHg 90%
    21:00 +16°C° 0.1 mm 2 mps 736 mmHg 93%
    22:00 +15°C° 0.1 mm 1 mps 737 mmHg 95%
    23:00 +15°C° 0 mm 2 mps 737 mmHg 95%
    Show more